User: anonymous   Login
Location: Huntington Beach
(33.6600°N, 117.9980°W)
Time: 12:23:09
(UTC-07:00)
Language:

Hubble Space Telescope - Orbit

View from above orbital plane
View from above orbital plane
View from above satellite
View from above satellite

Ground track
Ground track

The orbit data is extracted from the following two-line orbital elements,

1 20580U 90037B   15185.85633888  .00001533  00000-0  87082-4 0  9994
2 20580 028.4707 037.6061 0003140 069.3307 042.3424 15.07517049182474
Epoch (UTC): 04 July 2015 20:33:07
Eccentricity: 0.0003140
inclination: 28.4707°
perigee height: 541 km
apogee height: 546 km
right ascension of ascending node: 37.6061°
argument of perigee: 69.3307°
revolutions per day: 15.07517049
mean anomaly at epoch: 42.3424°
orbit number at epoch: 18247

The dashed part of the orbit path shows where the satellite is in the earth's shadow,  

DLR